Flag for Trinidad and Tobago Weather past 2 weeks in Port of Spain, Trinidad and Tobago

Now
75 °F

Passing clouds.


Feels Like: 74 °F
Forecast: 80 / 88 °F
Wind: No wind

Location: Piarco International Airport - Trinidad

Current Time: Sep 21, 2014 at 5:00:50 AM

Latest Report: Sep 21, 2014 at 4:00 AM


Visibility: N/A

Pressure: 29.86 "Hg

Humidity: 94%

Dew point: 73 °F

Location of Port of SpainLocation

Historic Weather in Port of Spain — Graph

°F

Port of Spain temperature yesterday

Maximum temperature yesterday: 88 °F (at 9:00 AM)
Minimum temperature yesterday: 73 °F (at 4:00 AM)
Average temperature yesterday: 79 °F

Past Weeks' High & Low Weather Summary

 TemperatureHumidityPressure
High93 °F (Sep 15, 12:00 PM)100% (Sep 6, 4:00 AM)30.01 "Hg (Sep 6, 4:00 AM)
Low73 °F (Sep 19, 5:00 AM)52% (Sep 9, 10:00 AM)29.80 "Hg (Sep 10, 5:00 PM)
Average82 °F79%29.90 "Hg
* Reported Sep 6 4:00 AM — Sep 21 4:00 AM, Port of Spain, Weather by CustomWeather, © 2014

Note: Actual official high and low records may vary slightly from our data, if they occured in-between our weather recording intervals... More about our weather records

Advertising

Port of Spain weather history for previous 24 hours

 ConditionsComfort  
Time TempWeatherWind HumidityBarometerVisibility
4:00 AM
Sep 21
75 °FPassing clouds.No wind94%29.86 "HgN/A
3:00 AM77 °FPassing clouds.No wind89%29.86 "HgN/A
2:00 AM77 °FLight rain. Passing clouds.No wind89%29.86 "HgN/A
1:00 AM77 °FSprinkles. Passing clouds.6 mph94%29.89 "HgN/A
12:00 AM77 °FPassing clouds.6 mph94%29.92 "HgN/A
11:00 PM
Sep 20
77 °FPassing clouds.No wind94%29.95 "HgN/A
10:00 PM77 °FPassing clouds.No wind94%29.95 "HgN/A
9:00 PM77 °FPassing clouds.5 mph94%29.92 "HgN/A
8:00 PM77 °FPassing clouds.5 mph94%29.89 "HgN/A
7:00 PM79 °FSprinkles. Passing clouds.14 mph84%29.89 "HgN/A
6:00 PM82 °FPassing clouds.7 mph79%29.86 "HgN/A
5:00 PM84 °FScattered clouds.7 mph74%29.83 "HgN/A
4:00 PM84 °FPassing clouds.10 mph74%29.83 "HgN/A
3:00 PM84 °FSprinkles. Scattered clouds.No wind84%29.83 "HgN/A
2:00 PM86 °FScattered clouds.No wind75%29.86 "HgN/A
1:00 PM84 °FScattered clouds.No wind79%29.86 "HgN/A
9:00 AM88 °FPassing clouds.7 mph66%29.92 "HgN/A
8:00 AM82 °FPassing clouds.No wind79%29.92 "HgN/A
7:00 AM75 °FPassing clouds.No wind89%29.89 "HgN/A
6:00 AM75 °FPassing clouds.No wind89%29.89 "HgN/A
5:00 AM75 °FPassing clouds.No wind89%29.86 "HgN/A
Weather by CustomWeather, © 2014

See weather overviewHow to use our weather pages